User: anonymous   Login
Location: Blue Mountain Vista Observatory
(40.6992°N, 75.9422°W)
Time: 10:31:49
(UTC-04:00)
Language:

CZ-4C R/B - Orbit

View from above orbital plane
View from above orbital plane
View from above satellite
View from above satellite

Ground track
Ground track

The orbit data is extracted from the following two-line orbital elements,

1 36416U 10009D   15140.16589085 -.00000032  00000-0  52082-4 0  9990
2 36416 063.4443 138.0257 0312597 358.9098 001.1223 13.69466275260423
Epoch (UTC): 20 May 2015 03:58:52
Eccentricity: 0.0312597
inclination: 63.4443°
perigee height: 771 km
apogee height: 1232 km
right ascension of ascending node: 138.0257°
argument of perigee: 358.9098°
revolutions per day: 13.69466275
mean anomaly at epoch: 1.1223°
orbit number at epoch: 26042

The dashed part of the orbit path shows where the satellite is in the earth's shadow,  

DLR